GSAT-6 (40880 NORAD) Tracking and Keplerian Element Data

This shows tracking and keplerian element data for the satellite.

Feedback or suggestion? Click here.




ElementValue
Catalog40880
NameGSAT-6
Epoch Orbit1619
Epoch Day22.77292932
Epoch Year2020
RAAN97.5489
Inclination0.0202
Eccentricity0.0007957
Argument of Perigee179.8331
Mean Anonmoly204.5714
Mean Motion1.00270706
Decay Rate-1.64E-06
L11 40880U 15041A 20022.77292932 -.00000164 00000-0 00000+0 0 9999
L22 40880 0.0202 97.5489 0007957 179.8331 204.5714 1.00270706 16191

Live tracking and technical data element details for GSAT-6 (NORAD 40880). GSAT-6 can be tracked NOW for your location showing map with azimuth and elevation plus other details from your city location.

Track the satellite on the map from your city or location and see movement details for azimuth, elevation, latitude, longitude, range, height, and movement on the map or in text.







IsCatalogInMostPopularTable: catalog: 40880, numindb: 371
Update: records affected: 1



GetName: 40880 GSAT-6

Hit Count: updated at: Fri, 24 Jan 2020 11:32:08 GMT